Вернуться в каталог

STARLINK-37934

АктивенСвязьSSO
NORAD 69567·PAYLOAD·🇺🇸 United States

Запущен Jun 15, 2026 с Vandenberg Space Force Base

Loading…

Ближайшие Пролёты (ближайшие 24 часа)

TLE

СвежийSource: CelesTrak SupGP

Эпоха: Sep 15, 2026, 02:59 UTC

1 69567C 26135X   26258.12479167 -.00030219  00000+0 -93782-3 0  2586
2 69567  97.2839 285.9478 0001336 107.3700 132.6289 15.33463341    12

Отслеживайте STARLINK-37934 в реальном времени с AllMySat

Download on the App Store